This is the latest recevied weather packets stored in our database for station/object VR2MW-X. If no packets are shown the sender has not sent any weather packets the latest 10 day(s).
| Time | Temp. | Humidity | Pressure | Rain* | Wind** | Luminosity | Snow |
|---|---|---|---|---|---|---|---|
| 1777459149 | 23.89° C | 93% | 1010.6 hPa | - | - | - | - |
| 1777458539 | 25° C | 92% | 1010.5 hPa | - | - | - | - |
| 1777457928 | 25° C | 94% | 1010.1 hPa | - | - | - | - |
| 1777457318 | 25° C | 94% | 1010.1 hPa | - | - | - | - |
| 1777456706 | 25° C | 93% | 1010.1 hPa | - | - | - | - |
| 1777456096 | 25° C | 91% | 1009.8 hPa | - | - | - | - |
| 1777455483 | 26.11° C | 90% | 1009.8 hPa | - | - | - | - |
| 1777454872 | 26.11° C | 88% | 1009.7 hPa | - | - | - | - |
| 1777454262 | 26.11° C | 87% | 1009.6 hPa | - | - | - | - |
| 1777453651 | 26.11° C | 83% | 1009.2 hPa | - | - | - | - |
| 1777453038 | 27.22° C | 82% | 1009.1 hPa | - | - | - | - |
| 1777452428 | 27.22° C | 77% | 1009.1 hPa | - | - | - | - |
| 1777451816 | 27.78° C | 79% | 1009.1 hPa | - | - | - | - |
| 1777451204 | 27.78° C | 80% | 1009.3 hPa | - | - | - | - |
| 1777450594 | 27.78° C | 79% | 1009.2 hPa | - | - | - | - |
| 1777449983 | 27.78° C | 77% | 1009 hPa | - | - | - | - |
| 1777449372 | 27.78° C | 78% | 1008.8 hPa | - | - | - | - |
| 1777448762 | 27.22° C | 79% | 1008.6 hPa | - | - | - | - |
| 1777448151 | 27.22° C | 77% | 1008.6 hPa | - | - | - | - |
| 1777447541 | 27.78° C | 75% | 1008.6 hPa | - | - | - | - |
| 1777446929 | 27.78° C | 78% | 1008.7 hPa | - | - | - | - |
| 1777446314 | 27.22° C | 75% | 1008.8 hPa | - | - | - | - |
| 1777445700 | 27.22° C | 77% | 1009 hPa | - | - | - | - |
| 1777445089 | 27.22° C | 77% | 1009.1 hPa | - | - | - | - |
| 1777444478 | 27.22° C | 75% | 1009.6 hPa | - | - | - | - |
* Rain since midnight (hover to see other rain measurements)
** Current wind speed in m/s (hover to see current wind gust speed)